Flag for Germany Weather past 2 weeks in Meissen, Saxony, Germany

Now
34 °F

Clear.


Feels Like: 26 °F
Forecast: 39 / 45 °F
Wind: 9 mph from South

Location: Dresden-Klotzsche

Current Time: Mar 1, 2015 at 4:36:48 AM

Latest Report: Mar 1, 2015 at 3:50 AM


Visibility: 10 mi

Pressure: 29.89 "Hg

Humidity: 81%

Dew point: 28 °F

Location of MeissenLocation

Historic Weather in Meissen — Graph

°F

Meissen temperature yesterday

Maximum temperature yesterday: 41 °F (at 2:50 PM)
Minimum temperature yesterday: 32 °F (at 9:20 PM)
Average temperature yesterday: 36 °F

Past Weeks' High & Low Weather Summary

 TemperatureHumidityPressure
High52 °F (Feb 20, 2:20 PM)100% (Feb 17, 5:50 PM)30.72 "Hg (Feb 17, 5:50 PM)
Low25 °F (Feb 20, 3:20 AM)34% (Feb 26, 2:20 PM)29.45 "Hg (Feb 21, 1:20 PM)
Average37 °F76%30.02 "Hg
* Reported Feb 14 3:20 AM — Mar 1 3:20 AM, Meissen, Weather by CustomWeather, © 2015

Note: Actual official high and low records may vary slightly from our data, if they occured in-between our weather recording intervals... More about our weather records

Advertising

Meissen weather history for previous 24 hours

 ConditionsComfort  
Time TempWeatherWind HumidityBarometerVisibility
3:20 AM
Sun, Mar 1
32 °FClear.10 mph87%29.89 "Hg10 mi
2:50 AM34 °FClear.9 mph81%29.92 "Hg10 mi
2:20 AM32 °FClear.9 mph87%29.92 "Hg10 mi
1:50 AM34 °FClear.9 mph81%29.95 "Hg10 mi
1:20 AM34 °FClear.8 mph81%29.95 "Hg10 mi
12:50 AM34 °FClear.9 mph81%29.95 "Hg10 mi
12:20 AM34 °FClear.10 mph87%29.98 "Hg10 mi
11:50 PM
Sat, Feb 28
32 °FClear.10 mph87%29.98 "Hg10 mi
11:20 PM32 °FClear.8 mph87%30.01 "Hg10 mi
10:50 PM34 °FClear.8 mph81%30.01 "Hg10 mi
10:20 PM32 °FClear.8 mph87%30.01 "Hg10 mi
9:50 PM32 °FClear.7 mph87%30.04 "Hg10 mi
9:20 PM32 °FClear.7 mph87%30.04 "Hg10 mi
8:50 PM34 °FClear.7 mph75%30.04 "Hg10 mi
8:20 PM36 °FClear.6 mph70%30.07 "Hg10 mi
7:50 PM34 °FClear.7 mph75%30.07 "Hg10 mi
7:20 PM37 °FClear.3 mph65%30.07 "Hg10 mi
6:50 PM37 °FClear.5 mph70%30.07 "Hg10 mi
6:20 PM39 °FClear.2 mph65%30.07 "Hg10 mi
5:50 PM39 °FPassing clouds.2 mph65%30.07 "HgN/A
5:20 PM39 °FPassing clouds.2 mph65%30.07 "HgN/A
4:50 PM39 °FPassing clouds.5 mph65%30.07 "HgN/A
4:20 PM41 °FScattered clouds.6 mph61%30.09 "HgN/A
3:50 PM41 °FScattered clouds.3 mph61%30.09 "HgN/A
3:20 PM41 °FScattered clouds.8 mph61%30.09 "HgN/A
2:50 PM41 °FPartly sunny.8 mph61%30.09 "HgN/A
2:20 PM39 °FBroken clouds.8 mph70%30.09 "HgN/A
1:50 PM39 °FPartly sunny.6 mph70%30.09 "HgN/A
1:20 PM39 °FPartly sunny.7 mph70%30.12 "HgN/A
12:50 PM39 °FPartly sunny.7 mph70%30.12 "HgN/A
12:20 PM39 °FPartly sunny.6 mph75%30.12 "HgN/A
11:50 AM37 °FBroken clouds.6 mph81%30.12 "HgN/A
11:20 AM37 °FPartly sunny.6 mph81%30.12 "HgN/A
10:50 AM37 °FMostly cloudy.6 mph87%30.12 "HgN/A
10:20 AM36 °FLow clouds.6 mph93%30.12 "HgN/A
9:50 AM36 °FLight rain. Low clouds.5 mph93%30.12 "HgN/A
9:20 AM36 °FLight rain. Low clouds.5 mph93%30.12 "Hg4 mi
8:50 AM36 °FLow clouds.6 mph93%30.12 "Hg4 mi
8:20 AM36 °FLight rain. Low clouds.6 mph93%30.12 "Hg4 mi
7:50 AM36 °FLight rain. Low clouds.3 mph93%30.12 "Hg3 mi
7:20 AM36 °FDrizzle. Low clouds.3 mph93%30.09 "Hg4 mi
6:50 AM36 °FDrizzle. Low clouds.6 mph93%30.09 "Hg4 mi
6:20 AM36 °FLow clouds.7 mph93%30.09 "HgN/A
5:50 AM36 °FPassing clouds.7 mph93%30.07 "HgN/A
5:20 AM36 °FPassing clouds.6 mph93%30.07 "HgN/A
4:20 AM36 °FPartly cloudy.5 mph93%30.07 "Hg4 mi
Weather by CustomWeather, © 2015

See weather overviewHow to use our weather pages